Location: Aranbee
(34.0885°N, 118.2342°W)
Time: 23:59:38
(UTC+00:00)

A-11 Canister half - Pass Details

Date: 05 August 2021
Orbit: 1515 x 1685 km, 47.2° (Epoch: 22 September)

Event Time Altitude Azimuth Distance (km) Brightness Sun altitude
Rises 05:47:23 0° 305° (NW) 4,900 12.7 -30.2°
Reaches altitude 10° 05:50:31 10° 306° (NW) 3,925 11.9 -30.5°
Maximum altitude 06:00:43 84° 36° (NE) 1,694 9.0 -31.8°
Enters shadow 06:03:01 60° 115° (ESE) 1,878 9.1 -32.0°
